Location: *
(51.5000°N, 0.1100°W)
Time: 20:00:45
(UTC+00:00)

Cosmos 1238 - Pass Details

Date: 25 May 2024
Orbit: 388 x 1368 km, 83.0° (Epoch: 16 June)

Event Time Altitude Azimuth Distance (km) Brightness Sun altitude
Rises 01:24:10 0° 349° (NNW) 2,840 9.5 -15.0°
Reaches altitude 10° 01:26:35 10° 348° (NNW) 1,798 8.3 -14.9°
Maximum altitude 01:30:24 76° 263° (W) 479 4.4 -14.7°
Enters shadow 01:31:58 29° 181° (S) 839 5.2 -14.6°
